Tracking 23731 objects as of 27-Sep-2021
HD Live streaming from Space Station
objects crossing your sky now

IUS R/B(2)

Track IUS R/B(2) now!


NORAD ID: 25869
Int'l Code: 1999-040D
Perigee: 1,318.1 km
Apogee: 72,016.3 km
Inclination: 37.3 °
Period: 1,481.0 minutes
Semi major axis: 43038 km
RCS: 4.4547 m2 (large)
Launch date: July 23, 1999
Source: United States (US)
Launch site: AIR FORCE EASTERN TEST RANGE (AFETR)

Note: This is a ROCKET BODY
aabbcc
Your satellite tracking list
Your tracking list is empty




NASA's NSSDC Master Catalog

Two Line Element Set (TLE):
1 25869U 99040D   21267.72022613 -.00000373  00000-0  00000-0 0  9997
2 25869  37.2892 354.7488 8213427 143.2633 320.6045  0.97234850 78756
Source of the keplerian elements: AFSPC